logo
Search for airport 
image banner adimage banner adimage banner ad
image banner ad

EYKA - Kaunas/International

Located in Kaunas, Lithuania

ICAO - EYKA, IATA - KUN

Data provided by Airmate  

General information

Coordinates: N54°57'50" E24°5'5"
Elevation is 259 feet MSL.
Magnetic variation is 8° East
View others Airports in Kaunas County

Operational data

Special qualification required
Current time UTC:
Current local time:
Weather
METAR: EYKA 281920Z 10004KT 070V130 CAVOK 20/14 Q1017
TAF: TAF EYKA 281701Z 2818/2918 VRB05KT 9000 NSC TEMPO 2818/2821 SCT040SCB TEMPO 2909/2912 BKN040CB TEMPO 2912/2918 VRB20KT 5000 TSRA BKN030CB
View NOTAMs / SUP AIP / TFR affecting this airport [VIEW]
Communications frequencies: [VIEW]

Runways:

RWY identifierQFULength (ft)Width (ft)SurfaceLDA (ft)
0885°10663148CONC+ASPH9682
26265°10663148CONC+ASPH9682

Airport contact information

Address: Kaunas Lithuania

Satellite view of EYKA